Regional Weather Roundup
Issued by NWS Midland/Odessa, TX

Skip options and go directly to product.
Home | Oldest Version | Previous Version | Current Version | All | Graphics & Text | Save Text | Print | Product List | Glossary On

Skip product version selection by date and time.   
734
ASUS44 KMAF 260010
RWRMAF
MIDLAND AREA WEATHER ROUNDUP
NATIONAL WEATHER SERVICE MIDLAND TX
700 PM CDT SUN SEP 25 2016

...IN SOUTHWEST TEXAS AND SOUTHEAST NEW MEXICO...

CITY           SKY/WX    TMP DP  RH WIND       PRES   REMARKS
ALPINE         CLOUDY    63  57  81 N20G25    30.24R
ANDREWS        RAIN      57  57 100 NE16G23   30.22
ARTESIA        CLOUDY    70  48  46 E9        30.26R
BIG SPRING     CLOUDY    60  59  96 N15       30.20R
CARLSBAD       CLOUDY    62  59  90 CALM      30.24R
DRYDEN           N/A     70  66  87 NE10      30.06R
FORT STOCKTON  HVY RAIN  63  62  97 N14       30.14R FOG
GUAD PASS      LGT RAIN  54  53  97 NE35G43   30.26S
HOBBS          MOCLDY    63  50  63 NE15G22   30.25R
MARFA          CLOUDY   N/A N/A N/A N16       30.20R
MIDLAND AIRPK  CLOUDY    62  57  85 NE15G23   30.19S
MIDLAND INTL   CLOUDY    62  57  83 NE22G29   30.18R
ODESSA         CLOUDY    61  57  87 NE21G28   30.20R
PECOS          CLOUDY    62  59  89 N14G25    30.14S
PRESIDIO       NOT AVBL
SEMINOLE       CLOUDY    59  55  85 NE9       30.25R
SNYDER           N/A     58  57  97 CALM      30.20R
WINK           CLOUDY    60  58  92 NE15G25   30.18R FOG
$$
...OTHER STATIONS IN TEXAS...

CITY           SKY/WX    TMP DP  RH WIND       PRES   REMARKS
ABILENE        LGT RAIN  63  62  97 N20       30.11F
AMARILLO       PTCLDY    68  42  38 NE13      30.28R
AUSTIN         TSTM      72  70  93 E6        30.01R
BROWNSVILLE    PTCLDY    86  76  71 SE16      29.86S
CORPUS CHRISTI MOCLDY    86  77  74 SE15G23   29.86R
DALLAS FTW     CLOUDY    78  72  81 N10       30.03R
DEL RIO        CLOUDY    73  69  87 NW5       29.96S
EL PASO        CLOUDY    73  44  35 E24G31    30.16R
HOUSTON INT    CLOUDY    75  73  93 NE12      29.97S
LUBBOCK        CLOUDY    63  49  60 NE12      30.24S
SAN ANGELO     CLOUDY    70  67  90 N12       30.09R
SAN ANTONIO    CLOUDY    72  67  84 N7        29.97R
WACO           CLOUDY    75  74  96 E5        30.02R
WICHITA FALLS  NOT AVBL
$$
...OTHER LOCATIONS IN NEW MEXICO...

CITY           SKY/WX    TMP DP  RH WIND       PRES   REMARKS
ALAMAGORDO     CLOUDY    73  41  31 E12G22    30.18R
ALBUQUERQUE    PTSUNNY   72  35  25 E22       30.31R
CANNON AFB     CLEAR     68  40  36 MISG      30.30R
CLOVIS         CLEAR     66  39  37 NE13      30.30R
HOLLOMAN AFB   CLOUDY    75  42  30 NE14      30.15R
ROSWELL        CLOUDY    72  44  36 E12       30.25R
RUIDOSO        CLOUDY    57  39  51 E14       30.42R
SANTA FE       CLOUDY    66  33  29 SE16      30.36R
TRUTH OR CONSE MOSUNNY   75  36  24 N15G23    30.20R
TUCUMCARI      PTCLDY    72  35  25 E16G22    30.29R
$$

USA.gov is the U.S. government's official web portal to all federal, state and local government web resources and services.